Regional Weather Roundup
Issued by NWS Sioux Falls, SD

Home | Current Version | Previous Version | Graphics & Text | Print | Product List | Glossary Off
Versions: 1 2 3 4 5 6 7 8 9 10 11 12 13 14 15 16 17 18 19 20 21 22 23 24 25 26 27 28 29 30 31 32 33 34 35 36 37 38 39 40 41 42 43 44 45 46 47 48 49 50

000
ASUS43 KFSD 270710
RWRFSD

WEATHER ROUNDUP FOR SE SOUTH DAKOTA/SW MINNESOTA/NW IOWA
NATIONAL WEATHER SERVICE SIOUX FALLS SD
200 AM CDT WED JUL 27 2016

NOTE: "FAIR" INDICATES FEW OR NO CLOUDS BELOW 12,000 FEET WITH NO
SIGNIFICANT WEATHER AND OR OBSTRUCTIONS TO VISIBILITY.


SDZ038>040-050-052>070-270800-
SOUTHEAST SOUTH DAKOTA

CITY           SKY/WX    TMP DP  RH WIND       PRES   REMARKS
BROOKINGS      CLOUDY    70  66  87 S10       29.95F
CHAMBERLAIN    CLOUDY    69  63  79 CALM      29.95F
HURON          CLOUDY    73  66  78 SW6       29.91S
MADISON        FAIR      72  68  88 S7        29.96F
MITCHELL       CLOUDY    73  68  84 W3        29.93S
SIOUX FALLS    CLOUDY    74  64  71 S13       29.96F
WINNER         FAIR      71  58  63 W12       29.97R
YANKTON        CLOUDY    75  64  69 SW10      29.99R
$$

MNZ071-072-080-081-089-090-097-098-270800-
SOUTHWEST MINNESOTA

CITY           SKY/WX    TMP DP  RH WIND       PRES   REMARKS
FAIRMONT       CLOUDY    68  64  88 S6        29.98F
JACKSON        CLOUDY    70  64  83 S7        30.00F
LUVERNE        CLOUDY    68  64  88 S7        29.98F
MARSHALL       CLOUDY    73  68  84 SE6       29.97F
MONTEVIDEO     RAIN      72  66  83 SE3       29.98F
REDWOOD FALLS  CLOUDY    73  68  84 S5        29.97F
TRACY          CLOUDY    71  69  93 S3        29.99F
WINDOM         CLOUDY    70  64  83 S5        30.00S
WORTHINGTON    MOCLDY    70  66  87 S9        30.01F
$$

IAZ001>003-012>014-020>022-031-032-NEZ013-014-SDZ071-270800-
NORTHWEST IOWA

CITY           SKY/WX    TMP DP  RH WIND       PRES   REMARKS
CHEROKEE       MOCLDY    67  66  96 S5        30.00F
DENISON        PTCLDY    68  64  88 SE6       29.99F
ESTHERVILLE    PTCLDY    65  64  97 S6        30.00F
LE MARS        CLOUDY    68  66  94 W5        30.02R
SHELDON        CLOUDY    68  66  94 CALM      30.00R
SIOUX CITY     CLOUDY    71  66  84 CALM      30.01R
SPENCER        PTCLDY    68  65  90 S5        30.00S
STORM LAKE     PTCLDY    66  64  94 S8        30.02F
$$

ABBREVIATIONS USED IN REMARKS
   TC - TEMPERATURE IN CELSIUS
  WCI - WIND CHILL INDEX
   HX - HEAT INDEX
  VSB - VISIBILITY





USA.gov is the U.S. government's official web portal to all federal, state and local government web resources and services.